CZ-4B R/B (28059 NORAD) Tracking and Keplerian Element Data

This shows tracking and keplerian element data for the satellite.

Feedback or suggestion? Click here.




ElementValue
Catalog28059
NameCZ-4B R/B
Epoch Orbit80236
Epoch Day345.24438403
Epoch Year2018
RAAN245.0891
Inclination98.5056
Eccentricity0.0050821
Argument of Perigee33.6104
Mean Anonmoly76.3986
Mean Motion14.52546197
Decay Rate2.6E-07
L11 28059U 03049C 18345.24438403 .00000026 00000-0 17981-4 0 9997
L22 28059 98.5056 245.0891 0050821 33.6104 76.3986 14.52546197802363

Live tracking and technical data element details for CZ-4B R/B (NORAD 28059). CZ-4B R/B can be tracked NOW for your location showing map with azimuth and elevation plus other details from your city location.

Track the satellite on the map from your city or location and see movement details for azimuth, elevation, latitude, longitude, range, height, and movement on the map or in text.







IsCatalogInMostPopularTable: catalog: 28059, numindb: 43
Update: records affected: 1



GetName: 28059 CZ-4B R/B

Hit Count: updated at: Thu, 13 Dec 2018 04:01:57 GMT